Weather History for Naples, FL

Change the Weather History Date:

Sunday, July 21, 2013

  Actual Average Record
Temperature  
Mean Temperature 83 °F 83 °F  
Max Temperature 88 °F 91 °F 95 °F (1981)
Min Temperature 77 °F 75 °F 69 °F (1973)
Degree Days  
Heating Degree Days 0 0  
Month to date heating degree days 0 0  
Since 1 June heating degree days 0 0  
Since 1 July heating degree days 0 0  
Cooling Degree Days 18 18  
Month to date cooling degree days 345 378  
Year to date cooling degree days 1943 1913  
Since 1 June cooling degree days 839 885  
Growing Degree Days 32 (Base 50)    
Moisture  
Dew Point 79 °F    
Average Humidity 88    
Maximum Humidity 100    
Minimum Humidity 75    
Precipitation  
Precipitation 0.00 in 0.23 in 2.49 in (1947)
Month to date precipitation 8.41 5.20  
Year to date precipitation 27.51 25.87  
Snow  
Snow 0.00 in - - ()
Month to date snowfall 0.0  
Since 1 June snowfall 0.0  
Since 1 July snowfall 0.0  
Snow Depth 0.00 in    
Sea Level Pressure  
Sea Level Pressure 30.10 in    
Wind  
Wind Speed 5 mph (South)    
Max Wind Speed 12 mph    
Max Gust Speed 14 mph    
Visibility 8 miles    
Events Thunderstorm    
T = Trace of Precipitation, MM = Missing Value Source: NWS Daily Summary

Daily Weather History Graph

Daily Weather History Graph

Search for Another Location

Airport:

Trip Planner

Search our weather history database for the weather conditions in past years. The results will help you decide how hot, cold, wet, or windy it might be!

Date:

Astronomy

Jul. 21, 2013 Rise Set
Actual Time 6:47 AM EDT 8:19 PM EDT
Civil Twilight 6:22 AM EDT 8:44 PM EDT
Nautical Twilight 5:51 AM EDT 9:14 PM EDT
Astronomical Twilight 5:20 AM EDT 9:46 PM EDT
Moon 7:20 PM EDT (7/21) 5:29 AM EDT (7/21)
Length of Visible Light 14h 22m
Length of Day
13h 31m
Waxing Gibbous, 98% of the Moon is Illuminated
Jul 21
Waxing Gibbous
Jul 22
Full
Jul 29
Last Quarter
Aug 6
New
Aug 14
First Quarter

Hourly Weather History & Observations

Time (EDT) Temp. Heat Index Dew Point Humidity Pressure Visibility Wind Dir Wind Speed Gust Speed Precip Events Conditions
12:53 AM 78.1 °F - 78.1 °F 100% 30.08 in 10.0 mi Calm Calm - N/A   Clear
1:53 AM 77.0 °F - 77.0 °F 100% 30.08 in 10.0 mi Calm Calm - N/A   Scattered Clouds
2:53 AM 77.0 °F - 77.0 °F 100% 30.07 in 10.0 mi East 3.5 mph - N/A   Clear
3:53 AM 78.1 °F - 78.1 °F 100% 30.07 in 10.0 mi SE 3.5 mph - N/A   Clear
4:53 AM 78.1 °F - 78.1 °F 100% 30.06 in 9.0 mi SE 4.6 mph - N/A   Clear
5:53 AM 78.1 °F - 78.1 °F 100% 30.06 in 9.0 mi Calm Calm - N/A Thunderstorm Clear
6:11 AM 78.8 °F - 78.8 °F 100% 30.07 in 9.0 mi Calm Calm - N/A   Partly Cloudy
6:53 AM 78.1 °F - 78.1 °F 100% 30.08 in 10.0 mi Calm Calm - N/A   Clear
7:53 AM 79.0 °F - 79.0 °F 100% 30.10 in 8.0 mi Calm Calm - N/A   Clear
8:53 AM 82.0 °F 92.8 °F 80.1 °F 94% 30.11 in 8.0 mi SE 4.6 mph - N/A   Clear
9:53 AM 84.0 °F 98.1 °F 81.0 °F 90% 30.12 in 7.0 mi SSE 3.5 mph - N/A   Clear
10:37 AM 84.2 °F 100.6 °F 82.4 °F 94% 30.12 in 8.0 mi SSE 4.6 mph - N/A   Mostly Cloudy
10:53 AM 84.9 °F 101.8 °F 82.0 °F 91% 30.13 in 8.0 mi SE 5.8 mph - N/A   Mostly Cloudy
11:37 AM 87.8 °F 104.9 °F 80.6 °F 79% 30.13 in 8.0 mi SSW 8.1 mph - N/A   Mostly Cloudy
11:53 AM 86.0 °F 100.8 °F 80.1 °F 82% 30.13 in 7.0 mi SSW 9.2 mph - N/A Thunderstorm Mostly Cloudy
12:53 PM 84.9 °F 98.9 °F 80.1 °F 85% 30.14 in 7.0 mi SW 4.6 mph - N/A Thunderstorm Mostly Cloudy
1:06 PM 84.2 °F 98.3 °F 80.6 °F 89% 30.13 in 8.0 mi Calm Calm - N/A   Mostly Cloudy
1:53 PM 84.0 °F 97.3 °F 80.1 °F 88% 30.11 in 7.0 mi SSW 6.9 mph - N/A   Mostly Cloudy
2:00 PM 84.2 °F 98.3 °F 80.6 °F 89% 30.11 in 7.0 mi SSW 9.2 mph - N/A   Partly Cloudy
2:53 PM 86.0 °F 104.1 °F 82.0 °F 88% 30.09 in 7.0 mi SW 8.1 mph - N/A   Scattered Clouds
3:06 PM 86.0 °F 101.9 °F 80.6 °F 84% 30.09 in 7.0 mi SSW 8.1 mph - N/A   Mostly Cloudy
3:29 PM 86.0 °F 101.9 °F 80.6 °F 84% 30.08 in 8.0 mi South 8.1 mph - N/A   Scattered Clouds
3:53 PM 87.1 °F 103.2 °F 80.1 °F 80% 30.07 in 8.0 mi SSW 6.9 mph - N/A   Clear
4:53 PM 88.0 °F 103.1 °F 79.0 °F 75% 30.06 in 8.0 mi SW 8.1 mph - N/A   Clear
5:53 PM 87.1 °F 103.2 °F 80.1 °F 80% 30.06 in 9.0 mi WSW 6.9 mph - N/A   Clear
6:53 PM 84.9 °F 98.9 °F 80.1 °F 85% 30.06 in 7.0 mi SW 8.1 mph - N/A   Scattered Clouds
7:53 PM 84.0 °F 97.3 °F 80.1 °F 88% 30.08 in 7.0 mi SW 4.6 mph - N/A   Mostly Cloudy
8:53 PM 84.0 °F 97.3 °F 80.1 °F 88% 30.11 in 8.0 mi Calm Calm - N/A   Scattered Clouds
9:53 PM 82.9 °F 94.8 °F 80.1 °F 91% 30.12 in 8.0 mi Calm Calm - N/A   Mostly Cloudy
10:00 PM 84.2 °F 98.3 °F 80.6 °F 89% 30.12 in 8.0 mi Calm Calm - N/A   Overcast
10:08 PM 82.4 °F 94.0 °F 80.6 °F 94% 30.12 in 8.0 mi Calm Calm - N/A   Overcast
10:53 PM 81.0 °F 87.9 °F 77.0 °F 88% 30.13 in 9.0 mi East 8.1 mph - N/A   Mostly Cloudy
11:33 PM 80.6 °F 86.2 °F 75.2 °F 84% 30.15 in 10.0 mi East 4.6 mph - N/A   Mostly Cloudy
11:53 PM 80.1 °F 85.4 °F 75.9 °F 87% 30.14 in 10.0 mi East 4.6 mph - N/A   Overcast